Regional Weather Roundup
Issued by NWS Cleveland, OH

Current Version | Previous Version | Text Only | Print | Product List | Glossary On
Versions: 1 2 3 4 5 6 7 8 9 10 11 12 13 14 15 16 17 18 19 20 21 22 23 24 25 26 27 28 29 30 31 32 33 34 35 36 37 38 39 40 41 42 43 44 45 46 47 48 49 50
582
ASUS41 KCLE 270612
RWRCLE
OHIO REGIONAL WEATHER ROUNDUP
NATIONAL WEATHER SERVICE WILMINGTON, OH
200 AM EDT FRI MAY 27 2016

NOTE: "FAIR" INDICATES FEW OR NO CLOUDS BELOW 12,000 FEET WITH NO
SIGNIFICANT WEATHER AND/OR OBSTRUCTIONS TO VISIBILITY.

OHZ001>008-015>018-024>027-034-035-043-044-270700-
   NORTHWEST OHIO

CITY           SKY/WX    TMP DP  RH WIND       PRES   REMARKS
DEFIANCE       FAIR      69  60  73 SW7       29.96F
FINDLAY        FAIR      67  59  75 S9        29.97F
TOLEDO EXPRESS FAIR      69  62  78 S6        29.95S
TOLEDO EXEC    FAIR      70  62  76 S9        29.97S
LIMA           FAIR      65  61  87 S7        29.99F
$$

OHZ009>014-019>023-028>033-038-089-270700-
   NORTHEAST OHIO

CITY           SKY/WX    TMP DP  RH WIND       PRES   REMARKS
CLE-HOPKINS    CLOUDY    73  65  75 S9        30.02R
CLE-LAKEFRONT  FAIR      74  66  76 S9        29.98R
CUY CO. ARPT   NOT AVBL
LORAIN-ELYRIA  FAIR      70  63  78 SW9       30.00R
ASHTABULA      FAIR      71  65  81 S7        30.01F
AKRON-CANTON   FAIR      70  65  84 SW12      30.03S
WOOSTER        FAIR      69  65  86 SW9       30.03R
MANSFIELD      FAIR      68  63  84 S9        30.02S
YOUNGSTOWN     MOCLDY    70  64  81 S6        30.03F
$$

OHZ042-051>053-060>062-070>072-077>081-270700-
  SOUTHWEST OHIO

CITY           SKY/WX    TMP DP  RH WIND       PRES   REMARKS
CINC-COVINGTON MOCLDY    64  62  93 S5        30.03S
CINC-LUNKEN    FAIR      62  62 100 SW3       30.04R FOG
HAMILTON       FAIR      66  63  90 S3        30.03F
DAYTON         FAIR      66  62  87 S8        30.02F
WRIGHT-PAT AFB FAIR      65  65 100 S8        30.01S
DAYTON GENERAL FAIR      64  61  90 S6        30.02S
WILMINGTON     FAIR      64  62  93 SW5       30.03F
$$

OHZ036-037-039>041-045>050-054>059-063>069-073>076-082>088-270700-
  CENTRAL AND SOUTHEAST OHIO

CITY           SKY/WX    TMP DP  RH WIND       PRES   REMARKS
COLUMBUS       FAIR      68  64  87 S5        30.02S
OSU AIRPORT    NOT AVBL
BOLTON FIELD   FAIR      65  63  91 S5        30.04S
RICKENBACK AFB FAIR      66  64  90 S6        30.02F
NEWARK         FAIR      70  64  81 SW3       30.03S
MARION         FAIR      66  61  84 S7        30.02S
LANCASTER      FAIR      66  61  84 SE6       30.04S
ZANESVILLE     FAIR      71  65  81 S6        30.04F
NEW PHILLY     FAIR      71  65  81 S5        30.04S
$$




USA.gov is the U.S. government's official web portal to all federal, state and local government web resources and services.